KB3UNV-1 Weather Reports


time (UTC)temp
C
wind
direction
speed
KPH
gust
KPH
rain 1hr
cm
rain 24hr
cm
rain mn
cm
humidity
%
barometer
mb
20260504151034 15 196 14.5 35.4 0.00 0.03 0.00 59 1006.3
20260504150529 14 217 16.1 29.0 0.00 0.03 0.00 58 1006.3
20260504141022 13 360 20.9 27.4 0.00 0.03 0.00 60 1006.2
20260504140519 13 230 20.9 30.6 0.00 0.03 0.00 60 1006.3
20260504130510 11 198 19.3 32.2 0.00 0.03 0.00 64 1006.8
20260504110555 8 360 12.9 24.1 0.00 0.03 0.03 67 1006.8
20260504100553 8 223 16.1 24.1 0.03 0.03 0.03 66 1006.8
20260504081549 8 360 14.5 22.5 0.00 0.00 0.00 65 1007.8
20260504081049 8 360 12.9 22.5 0.00 0.00 0.00 66 1007.9
20260504080547 8 360 12.9 20.9 0.00 0.00 0.00 66 1008.0
20260504050528 8 207 11.3 22.5 0.00 0.00 0.00 62 1010.0
20260504045026 8 219 12.9 27.4 0.00 0.00 0.00 61 1010.1
20260504044527 8 244 12.9 25.7 0.00 0.00 0.00 61 1010.1
20260504044026 8 196 12.9 24.1 0.00 0.00 0.00 61 1010.1
20260504043526 8 223 11.3 25.7 0.00 0.00 0.00 60 1010.2
20260504043026 8 207 14.5 24.1 0.00 0.00 0.00 61 1010.1
20260504042526 8 360 11.3 20.9 0.00 0.00 0.00 61 1010.1
20260504042028 8 194 11.3 20.9 0.00 0.00 0.00 61 1010.1
20260504041528 8 360 11.3 20.9 0.00 0.00 0.00 61 1010.1
20260504041025 8 196 14.5 20.9 0.00 0.00 0.00 60 1010.1
20260504040529 8 360 11.3 20.9 0.00 0.00 0.00 60 1010.2
20260504040025 8 360 12.9 20.9 0.00 0.00 0.00 60 1010.2
20260504035024 8 360 11.3 25.7 0.00 0.00 0.00 60 1010.3
20260504034525 8 360 12.9 20.9 0.00 0.00 0.00 60 1010.3
20260504034025 8 195 11.3 20.9 0.00 0.00 0.00 60 1010.3
20260504033527 8 196 11.3 24.1 0.00 0.00 0.00 60 1010.3
20260504033025 8 360 12.9 24.1 0.00 0.00 0.00 59 1010.4
20260504032523 9 360 11.3 20.9 0.00 0.00 0.00 59 1010.5
20260504032024 9 206 11.3 25.7 0.00 0.00 0.00 59 1010.5
20260504031524 9 360 14.5 25.7 0.00 0.00 0.00 58 1010.5
20260504031023 9 200 9.7 17.7 0.00 0.00 0.00 59 1010.6
20260504030523 9 360 12.9 19.3 0.00 0.00 0.00 59 1010.5
20260504030035 9 198 12.9 17.7 0.00 0.00 0.00 58 1010.6
20260504025022 9 360 11.3 17.7 0.00 0.00 0.00 58 1010.6
20260504024521 9 207 11.3 16.1 0.00 0.00 0.00 58 1010.6
20260504024024 9 360 11.3 16.1 0.00 0.00 0.00 58 1010.6
20260504023522 9 202 9.7 14.5 0.00 0.00 0.00 58 1010.6
20260504023022 9 197 11.3 17.7 0.00 0.00 0.00 57 1010.6
20260504022521 9 204 11.3 19.3 0.00 0.00 0.00 57 1010.7
20260504022025 10 211 11.3 19.3 0.00 0.00 0.00 57 1010.7
20260504021526 10 197 11.3 17.7 0.00 0.00 0.00 57 1010.7
20260504021020 9 213 9.7 16.1 0.00 0.00 0.00 57 1010.7
20260504020520 10 200 9.7 14.5 0.00 0.00 0.00 57 1010.7
20260504020020 10 204 11.3 16.1 0.00 0.00 0.00 57 1010.7
20260504015024 10 198 9.7 19.3 0.00 0.00 0.00 56 1010.6
20260504014521 10 218 11.3 14.5 0.00 0.00 0.00 56 1010.7
20260504014021 10 215 11.3 16.1 0.00 0.00 0.00 56 1010.6
20260504013523 10 360 9.7 16.1 0.00 0.00 0.00 56 1010.6
20260504013021 10 198 9.7 16.1 0.00 0.00 0.00 55 1010.6
20260504012520 10 360 8.0 12.9 0.00 0.00 0.00 56 1010.5
20260504012021 10 196 8.0 14.5 0.00 0.00 0.00 55 1010.5
20260504011519 10 360 8.0 14.5 0.00 0.00 0.00 54 1010.5
20260504011019 10 194 8.0 12.9 0.00 0.00 0.00 54 1010.6
20260504010518 11 211 8.0 22.5 0.00 0.00 0.00 53 1010.6
20260504010021 11 209 9.7 22.5 0.00 0.00 0.00 52 1010.6
20260504005018 11 203 9.7 20.9 0.00 0.00 0.00 52 1010.5
20260504004522 11 360 11.3 20.9 0.00 0.00 0.00 52 1010.5
20260504004017 11 236 14.5 20.9 0.00 0.00 0.00 51 1010.5
20260504003516 11 225 6.4 25.7 0.00 0.00 0.00 51 1010.5
20260504003017 11 246 12.9 25.7 0.00 0.00 0.00 51 1010.5
20260504002516 11 213 9.7 19.3 0.00 0.00 0.00 51 1010.6
20260504002016 11 252 11.3 22.5 0.00 0.00 0.00 50 1010.5
20260504001517 11 223 12.9 22.5 0.00 0.00 0.00 50 1010.4
20260504001016 11 222 11.3 22.5 0.00 0.00 0.00 50 1010.5
20260504000516 11 243 11.3 20.9 0.00 0.00 0.00 49 1010.4
20260504000016 11 229 12.9 20.9 0.00 0.00 0.00 49 1010.4
20260503235015 12 223 11.3 25.7 0.00 0.00 0.00 49 1010.5
20260503234526 12 230 11.3 25.7 0.00 0.00 0.00 48 1010.5
20260503234015 12 227 14.5 25.7 0.00 0.00 0.00 48 1010.5
20260503233514 12 207 12.9 24.1 0.00 0.00 0.00 49 1010.6
20260503233014 12 272 8.0 24.1 0.00 0.00 0.00 48 1010.5
20260503232514 12 249 11.3 32.2 0.00 0.00 0.00 48 1010.6
20260503232013 12 226 11.3 32.2 0.00 0.00 0.00 47 1010.5
20260503231514 12 265 17.7 29.0 0.00 0.00 0.00 47 1010.5
20260503231017 12 250 14.5 24.1 0.00 0.00 0.00 48 1010.6
20260503230516 12 234 9.7 19.3 0.00 0.00 0.00 48 1010.6
20260503230013 12 252 14.5 35.4 0.00 0.00 0.00 47 1010.6
20260503225018 12 225 12.9 24.1 0.00 0.00 0.00 47 1010.6
20260503224515 12 244 12.9 27.4 0.00 0.00 0.00 47 1010.6
20260503224015 12 224 17.7 27.4 0.00 0.00 0.00 46 1010.6
20260503223521 12 225 14.5 24.1 0.00 0.00 0.00 47 1010.7
20260503223014 12 244 9.7 22.5 0.00 0.00 0.00 46 1010.7
20260503222514 12 236 12.9 24.1 0.00 0.00 0.00 46 1010.7
20260503222017 12 257 12.9 24.1 0.00 0.00 0.00 46 1010.7
20260503221513 12 252 9.7 17.7 0.00 0.00 0.00 47 1010.7
20260503221015 12 213 9.7 19.3 0.00 0.00 0.00 47 1010.7
20260503220515 12 252 12.9 32.2 0.00 0.00 0.00 46 1010.7
20260503220034 12 360 16.1 32.2 0.00 0.00 0.00 46 1010.7
20260503215013 12 249 14.5 27.4 0.00 0.00 0.00 46 1010.7
20260503214511 12 210 8.0 27.4 0.00 0.00 0.00 46 1010.7
20260503214011 12 236 12.9 29.0 0.00 0.00 0.00 46 1010.7
20260503213514 12 213 16.1 29.0 0.00 0.00 0.00 45 1010.6
20260503213013 12 212 19.3 33.8 0.00 0.00 0.00 45 1010.7
20260503212512 13 205 19.3 33.8 0.00 0.00 0.00 44 1010.5
20260503212011 13 204 11.3 29.0 0.00 0.00 0.00 45 1010.5
20260503211512 13 260 19.3 29.0 0.00 0.00 0.00 43 1010.5
20260503211011 12 229 14.5 25.7 0.00 0.00 0.00 43 1010.5
20260503210510 13 223 14.5 25.7 0.00 0.00 0.00 42 1010.4
20260503210009 13 288 12.9 20.9 0.00 0.00 0.00 44 1010.5
20260503205011 12 257 12.9 33.8 0.00 0.00 0.00 43 1010.6
20260503204510 12 271 19.3 33.8 0.00 0.00 0.00 43 1010.7
20260503204014 12 229 14.5 32.2 0.00 0.00 0.00 41 1010.8
20260503203509 12 250 11.3 30.6 0.00 0.00 0.00 44 1010.7
20260503203020 13 254 16.1 29.0 0.00 0.00 0.00 42 1010.9
20260503202508 12 245 16.1 29.0 0.00 0.00 0.00 42 1010.9
20260503202008 12 251 9.7 29.0 0.00 0.00 0.00 43 1011.0
20260503201508 12 249 16.1 37.0 0.00 0.00 0.00 42 1011.0
20260503201011 13 246 14.5 25.7 0.00 0.00 0.00 42 1011.1
20260503200506 13 203 9.7 29.0 0.00 0.00 0.00 42 1011.1
20260503200005 13 250 16.1 30.6 0.00 0.00 0.00 42 1011.2
20260503195003 12 247 12.9 25.7 0.00 0.00 0.00 42 1011.4
20260503194503 12 245 14.5 32.2 0.00 0.00 0.00 43 1011.4
20260503194002 12 248 19.3 32.2 0.00 0.00 0.00 42 1011.4
20260503193500 12 232 11.3 27.4 0.00 0.00 0.00 44 1011.5
20260503193112 12 277 12.9 32.2 0.00 0.00 0.00 44 1011.6
20260503192600 12 244 17.7 32.2 0.00 0.00 0.00 46 1011.7
20260503192059 12 279 14.5 32.2 0.00 0.00 0.00 47 1011.7
20260503191608 12 198 19.3 33.8 0.00 0.00 0.00 46 1011.7
20260503191058 12 234 19.3 30.6 0.00 0.00 0.00 47 1011.9
20260503190557 12 293 11.3 29.0 0.00 0.00 0.00 44 1011.8
20260503190059 12 225 12.9 29.0 0.00 0.00 0.00 47 1012.0
20260503185100 12 294 16.1 27.4 0.00 0.00 0.00 45 1012.2
20260503184608 12 221 16.1 27.4 0.00 0.00 0.00 47 1012.2
20260503184055 12 269 9.7 24.1 0.00 0.00 0.00 47 1012.3
20260503183555 12 248 11.3 30.6 0.00 0.00 0.00 47 1012.3
20260503183108 12 261 17.7 32.2 0.00 0.00 0.00 46 1012.3
20260503182556 12 198 16.1 32.2 0.00 0.00 0.00 49 1012.5
20260503182053 11 245 20.9 32.2 0.00 0.00 0.00 47 1012.5
20260503181606 11 249 16.1 29.0 0.00 0.00 0.00 47 1012.6
20260503181051 11 236 11.3 32.2 0.00 0.00 0.00 50 1012.7
20260503180551 11 255 20.9 32.2 0.00 0.00 0.00 49 1012.7
20260503180050 11 265 16.1 43.5 0.00 0.00 0.00 48 1012.8
20260503175051 11 206 16.1 30.6 0.00 0.00 0.00 48 1012.9
20260503174548 11 237 16.1 29.0 0.00 0.00 0.00 50 1013.0
20260503174048 11 225 17.7 37.0 0.00 0.00 0.00 51 1013.0
20260503173547 11 199 20.9 35.4 0.00 0.00 0.00 49 1013.0
20260503173056 11 224 16.1 27.4 0.00 0.00 0.00 50 1013.1
20260503172546 10 231 9.7 24.1 0.00 0.00 0.00 52 1013.2
20260503172044 10 239 12.9 27.4 0.00 0.00 0.00 50 1013.3
20260503171544 10 243 17.7 27.4 0.00 0.00 0.00 50 1013.3
20260503171044 10 279 14.5 27.4 0.00 0.00 0.00 49 1013.4
20260503170543 10 286 17.7 27.4 0.00 0.00 0.00 50 1013.5